Location: Dumbr?vi?a
(45.8833°N, 22.7000°E)
Time: 20:50:33
(UTC+00:00)

Cosmos 2360 Rocket - Pass Details

Date: 03 March 2021
Orbit: 832 x 846 km, 71.0° (Epoch: 13 April)

Event Time Altitude Azimuth Distance (km) Brightness Sun altitude
Rises 16:54:24 0° 178° (S) 3,373 5.3 -7.0°
Reaches altitude 10° 16:57:00 10° 169° (S) 2,445 4.5 -7.5°
Maximum altitude 17:02:02 35° 106° (ESE) 1,327 2.8 -8.3°
Drops below altitude 10° 17:07:07 10° 42° (NE) 2,470 4.2 -9.2°
Sets 17:09:44 0° 34° (NNE) 3,411 5.0 -9.7°
